Regional Weather Roundup
Issued by NWS

Home | Current Version | Previous Version | Text Only | Print | Product List | Glossary On
Versions: 1 2 3 4 5 6 7 8 9 10 11 12 13 14 15 16 17 18 19 20 21 22 23 24 25 26 27 28 29 30 31 32 33 34 35 36 37 38 39 40 41 42 43 44 45 46 47 48 49 50
000
ASUS43 KDMX 261006
RWRIA

WEATHER ROUNDUP FOR IOWA
NATIONAL WEATHER SERVICE DES MOINES IA
500 AM CDT FRI MAY 26 2017

NOTE: "FAIR" INDICATES FEW OR NO CLOUDS BELOW 12,000 FEET WITH NO
SIGNIFICANT WEATHER AND/OR OBSTRUCTIONS TO VISIBILITY.

* - THESE STATIONS ARE NOT NWS STATIONS...THUS NOT UNDER NWS
QUALITY CONTROL.  THEY ALSO DO NOT REPORT WEATHER SUCH
AS PRECIPITATION OR FOG.

IAZ001>003-012>014-020>022-031>034-043>046-261100-
   NORTHWEST IOWA

CITY           SKY/WX    TMP DP  RH WIND       PRES   REMARKS
CARROLL *      CLOUDY    59  55  88 SE6       29.67S
CHEROKEE *     MOCLDY    59  55  87 CALM      29.67S
DENISON *      CLOUDY    63  54  72 CALM      29.67S
LE MARS *      CLOUDY    57  54  88 CALM      29.67S
ORANGE CITY *  CLOUDY    57  55  94 CALM      29.68R
SHELDON *      PTCLDY    57  54  88 S5        29.66S
SIOUX CITY     CLOUDY    57  56  96 NW3       29.66R
SPENCER        PTCLDY    58  53  84 SE5       29.68S
STORM LAKE *   CLOUDY    59  54  82 SE8       29.68S
$$

IAZ055>058-069>071-079>083-090>094-261100-
   SOUTHWEST IOWA

CITY           SKY/WX    TMP DP  RH WIND       PRES   REMARKS
ATLANTIC *     CLOUDY    63  55  77 E3        29.65S
AUDUBON *      CLOUDY    57  54  88 CALM      29.67S
CLARINDA *     CLOUDY    61  57  88 CALM      29.66F
COUNCIL BLFS * MOCLDY    61  59  94 SE7       29.64S
CRESTON *      CLOUDY    59  54  82 SE6       29.67S
HARLAN  *      CLOUDY    61  55  82 CALM      29.69S
LAMONI         CLOUDY    61  54  77 E6        29.63F
RED OAK *      CLOUDY    63  55  77 SE5       29.65R
SHENANDOAH *   CLOUDY    61  57  88 CALM      29.65S
$$

IAZ047>049-059>061-072>074-084-261100-
   CENTRAL IOWA

CITY           SKY/WX    TMP DP  RH WIND       PRES   REMARKS
AMES           CLOUDY    57  53  86 E3        29.69F
ANKENY *       CLOUDY    61  54  77 E7        29.69F
BOONE *        MOCLDY    57  55  94 E8        29.68S
CHARITON *     CLOUDY    61  54  77 SE6       29.67S
DES MOINES     CLOUDY    61  53  75 E8        29.67F
GRINNELL*      MOCLDY    59  52  77 E9        29.72F
KNOXVILLE *    MOCLDY    59  52  77 E7        29.67F
MARSHALLTOWN   CLOUDY    56  53  90 E9        29.70F
NEWTON *       MOCLDY    59  52  77 E10       29.69F
PERRY *          N/A     59  55  87 E8        29.67F
$$

IAZ004>006-015-016-023>025-035-036-261100-
   NORTH CENTRAL IOWA

CITY           SKY/WX    TMP DP  RH WIND       PRES   REMARKS
ALGONA *       CLOUDY    59  52  77 SE12      29.69S
CLARION *      CLOUDY    57  52  82 SE12      29.70S
ESTHERVILLE    CLOUDY    58  53  84 S9        29.67F
FORT DODGE *   CLOUDY    57  50  77 SE6       29.70S
MASON CITY     CLEAR     52  48  86 SE7       29.73S
FOREST CITY *    N/A     52  43  71 SE5       29.71F
WEBSTER CITY * PTCLDY    55  52  88 SE8       29.68S
$$

IAZ007>011-017>019-026>030-037>042-050>054-066-261100-
   NORTHEAST IOWA

CITY           SKY/WX    TMP DP  RH WIND       PRES   REMARKS
CEDAR RAPIDS   PTCLDY    57  56  96 E10       29.74F
CHARLES CITY * CLEAR     55  54  94 SE10      29.73S
CLINTON *      CLOUDY    56  54  93 E7        29.79F
DUBUQUE        CLOUDY    56  53  90 SE5       29.79F
MONTICELLO *   CLOUDY    57  55  94 SE8       29.77S
OELWEIN *      PTCLDY    55  55 100 SE8       29.75F
WATERLOO       CLOUDY    57  52  83 E6        29.72F
$$

IAZ064-065-067-068-078-261100-
   EAST CENTRAL IOWA

CITY           SKY/WX    TMP DP  RH WIND       PRES   REMARKS
DAVENPORT      CLOUDY    57  54  89 E8        29.79S
IOWA CITY      CLOUDY    60  54  80 E6        29.76F
MT. PLEASANT * CLOUDY    57  53  84 E8        29.74F
MUSCATINE *    CLOUDY    55  52  88 CALM      29.77S
QUAD CITIES    MOCLDY    58  54  86 NE8       29.77F
$$

IAZ062-063-075>077-085>089-095>099-261100-
   SOUTHEAST IOWA

CITY           SKY/WX    TMP DP  RH WIND       PRES   REMARKS
BURLINGTON     PTCLDY    60  53  77 E6        29.75S
FAIRFIELD *    PTCLDY    57  52  82 E9        29.71F
FORT MADISON * CLOUDY    63  54  72 SE7       29.75S
KEOKUK *       CLOUDY    59  54  82 SE7       29.73S
OSKALOOSA *      N/A     57  52  82 E10       29.70F
CENTERVILLE *    N/A     57  54  88 CALM      29.71R
OTTUMWA        PTCLDY    59  54  83 E10       29.69F
$$

ABBREVIATIONS USED IN REMARKS
   TC - TEMPERATURES IN CELSIUS
  WCI - WIND CHILL INDEX
   HX - HEAT INDEX
  VSB - VISIBILITY
$$




USA.gov is the U.S. government's official web portal to all federal, state and local government web resources and services.